Погода в Тьюксбери

Великобритания     51°59′34″N   2°09′17″W
темп.,
°C
ветер,
м/с
пор.,
м/с
влажн.,
%
обл.,
%
осадки,
мм/ч
давл.,
гПа
погр.,
м
9 марта, вт
вт900:00+1юз229132 0.0 102222
03:000ююз12920 0.0 102122
06:000ююз12903 0.0 102121
09:00+4юз237721 0.0 1020212
12:00+9юз346848 0.0 1020652
15:00+9ююз687096 0.0 1018775
18:00+5ююз358998 0.0 101793
21:00+4ююз61485100 0.0 1016543
10 марта, ср
ср1000:00+5ююз81678100 0.0 1014763
03:00+5ююз91785100 0.3 1011758
06:00+6ю91892100 1.1 1009721
09:00+8ююз91793100 1.1 1007771
12:00+9ююз91694100 1.8 1006733
15:00+10ююз91594100 0.4 1002666
18:00+12ююз91894100 1.4 998988
21:00+11юз102093100 0.8 9961193
11 марта, чт
чт1100:00+10юз122383100 1.1 9941740
03:00+8юз132380100 0.3 9921706
06:00+7юз142383100 0.6 9921487
09:00+7з10167869 0.4 9951513
12:00+9зюз11176771 1.1 9982027
15:00+7зюз101773100 1.3 9991837
18:00+5з7157883 1.8 10021111
21:00+3зюз5157729 0.0 1005659
12 марта, пт
пт1200:00+3юз5148048 0.0 1006560
03:00+4юз71487100 0.0 1004869
06:00+5юз6148993 0.8 1002838
09:00+5зюз81583100 2.3 10011360
12:00+8з11176476 2.6 10022016
15:00+8з10156269 0.6 10021812
18:00+5юз5138080 0.8 1002870
21:00+5ююз7148860 0.0 1000877
13 марта, сб
сб1300:00+7юз10189080 0.8 9971255
03:00+7юз81590100 1.4 9941076
06:00+7зюз91788100 2.7 9931270
09:00+7зюз9177697 0.1 9931536
12:00+7зюз9167489 0.9 9931713
15:00+6з142175100 1.3 9931716
18:00+4з81585100 2.4 9961091
21:00+2з5158660 0.0 1001711